FW3354 Weather Reports


time (UTC)temp
C
wind
direction
speed
KPH
gust
KPH
rain 1hr
cm
rain 24hr
cm
rain mn
cm
humidity
%
barometer
mb
20260506143123 11 135 0.0 0.0 0.00 0.00 0.00 87 1017.5
20260506142123 11 158 0.0 0.0 0.00 0.00 0.00 88 1017.5
20260506141125 11 158 0.0 0.0 0.00 0.00 0.00 89 1017.4
20260506140124 11 158 0.0 0.0 0.00 0.00 0.00 89 1017.5
20260506135125 11 158 0.0 0.0 0.00 0.00 0.00 89 1017.5
20260506134124 11 158 0.0 0.0 0.00 0.00 0.00 89 1017.4
20260506133124 11 135 0.0 0.0 0.00 0.00 0.00 89 1017.4
20260506132123 11 158 0.0 0.0 0.00 0.00 0.00 89 1017.4
20260506131124 11 158 0.0 0.0 0.00 0.00 0.00 89 1017.4
20260506130123 10 158 0.0 0.0 0.00 0.00 0.00 88 1017.2
20260506125125 10 158 0.0 0.0 0.00 0.00 0.00 89 1017.0
20260506124147 10 158 0.0 0.0 0.00 0.00 0.00 89 1017.0
20260506123125 10 158 0.0 0.0 0.00 0.00 0.00 90 1017.0
20260506122123 10 158 0.0 0.0 0.00 0.00 0.00 90 1017.0
20260506121123 10 135 0.0 0.0 0.00 0.00 0.00 89 1016.9
20260506120123 10 158 0.0 0.0 0.00 0.00 0.00 90 1016.9
20260506115123 10 158 0.0 0.0 0.00 0.00 0.00 90 1016.9
20260506114123 10 158 0.0 0.0 0.00 0.00 0.00 90 1016.8
20260506113124 10 158 0.0 0.0 0.00 0.00 0.00 91 1016.8
20260506112124 9 135 0.0 0.0 0.00 0.00 0.00 92 1016.8
20260506111147 9 135 0.0 0.0 0.00 0.00 0.00 91 1016.5
20260506110123 9 135 0.0 0.0 0.00 0.00 0.00 92 1016.5
20260506105123 8 135 0.0 0.0 0.00 0.00 0.00 91 1016.5
20260506104144 8 135 0.0 0.0 0.00 0.00 0.00 91 1016.4
20260506103144 8 158 0.0 0.0 0.00 0.00 0.00 90 1016.4
20260506102123 8 158 0.0 0.0 0.00 0.00 0.00 90 1016.3
20260506101123 8 158 0.0 0.0 0.00 0.00 0.00 89 1016.3
20260506100124 9 158 0.0 0.0 0.00 0.00 0.00 89 1016.3
20260506095124 9 158 0.0 0.0 0.00 0.00 0.00 89 1016.2
20260506094123 9 158 0.0 0.0 0.00 0.00 0.00 89 1016.3
20260506093123 9 180 0.0 0.0 0.00 0.00 0.00 88 1016.3
20260506092123 9 158 0.0 0.0 0.00 0.00 0.00 88 1016.3
20260506091123 10 158 0.0 0.0 0.00 0.00 0.00 88 1016.2
20260506090123 10 158 0.0 0.0 0.00 0.00 0.00 88 1016.2
20260506085123 10 135 0.0 0.0 0.00 0.00 0.00 87 1016.2
20260506084125 10 158 0.0 0.0 0.00 0.00 0.00 87 1016.2
20260506083125 10 158 0.0 0.0 0.00 0.00 0.00 88 1016.2
20260506082124 10 113 0.0 0.0 0.00 0.00 0.00 87 1016.0
20260506081123 10 113 0.0 0.0 0.00 0.00 0.00 87 1016.2
20260506080123 10 158 0.0 0.0 0.00 0.00 0.00 87 1016.0
20260506073123 10 158 0.0 0.0 0.00 0.00 0.00 86 1015.8
20260506072124 10 158 0.0 0.0 0.00 0.00 0.00 86 1015.7
20260506071124 10 158 0.0 0.0 0.00 0.00 0.00 86 1015.7
20260506070126 10 180 0.0 0.0 0.00 0.00 0.00 85 1015.5
20260506062123 11 158 0.0 0.0 0.00 0.00 0.00 83 1015.2
20260506061123 11 135 0.0 0.0 0.00 0.00 0.00 82 1015.2
20260506060125 11 158 0.0 0.0 0.00 0.00 0.00 82 1015.2
20260506051144 12 225 0.0 0.0 0.00 0.00 0.00 81 1014.9
20260506050123 13 158 0.0 0.0 0.00 0.00 0.00 81 1014.7
20260506045123 13 248 0.0 0.0 0.00 0.00 0.00 81 1014.5
20260506044125 13 158 0.0 0.0 0.00 0.00 0.00 80 1014.5
20260506043125 14 180 0.0 0.0 0.00 0.00 0.00 78 1014.5
20260506042125 15 158 0.0 0.0 0.00 0.00 0.00 76 1014.4
20260506041123 15 113 0.0 4.8 0.00 0.00 0.00 73 1014.0
20260506040123 16 123 1.6 11.3 0.00 0.00 0.00 71 1014.0
20260506035123 16 127 3.2 12.9 0.00 0.00 0.00 70 1013.9
20260506034123 16 128 4.8 20.9 0.00 0.00 0.00 69 1013.8
20260506033123 16 142 8.0 20.9 0.00 0.00 0.00 69 1013.8
20260506032145 17 130 4.8 22.5 0.00 0.00 0.00 68 1013.7
20260506031124 17 135 8.0 20.9 0.00 0.00 0.00 68 1013.7
20260506030125 17 125 6.4 19.3 0.00 0.00 0.00 67 1013.5
20260506025144 17 138 6.4 20.9 0.00 0.00 0.00 66 1013.4
20260506024123 18 116 8.0 29.0 0.00 0.00 0.00 65 1013.3
20260506023123 18 119 6.4 32.2 0.00 0.00 0.00 63 1013.3
20260506022123 18 121 8.0 27.4 0.00 0.00 0.00 61 1013.0
20260506021123 18 132 11.3 33.8 0.00 0.00 0.00 60 1013.0
20260506020124 19 147 9.7 29.0 0.00 0.00 0.00 59 1012.9
20260506015124 19 126 12.9 37.0 0.00 0.00 0.00 59 1012.9
20260506014123 19 127 12.9 37.0 0.00 0.00 0.00 59 1012.9
20260506013123 19 144 9.7 33.8 0.00 0.00 0.00 57 1012.9
20260506012123 20 141 12.9 30.6 0.00 0.00 0.00 56 1012.9
20260506011123 20 136 11.3 27.4 0.00 0.00 0.00 55 1012.9
20260506010123 20 138 8.0 29.0 0.00 0.00 0.00 54 1012.8
20260506005124 20 109 12.9 29.0 0.00 0.00 0.00 53 1012.8
20260506004124 21 135 9.7 29.0 0.00 0.00 0.00 52 1012.8
20260506003124 21 130 11.3 35.4 0.00 0.00 0.00 49 1012.8
20260506002123 22 142 11.3 40.2 0.00 0.00 0.00 48 1012.8
20260506001123 22 126 11.3 29.0 0.00 0.00 0.00 48 1012.8
20260506000144 22 142 9.7 37.0 0.00 0.00 0.00 48 1012.9
20260505235123 22 152 11.3 29.0 0.00 0.00 0.00 47 1012.9
20260505234123 22 137 8.0 29.0 0.00 0.00 0.00 46 1012.9
20260505233124 22 133 8.0 29.0 0.00 0.00 0.00 45 1012.9
20260505232124 22 124 9.7 30.6 0.00 0.00 0.00 44 1012.9
20260505231124 22 150 8.0 25.7 0.00 0.00 0.00 42 1012.9
20260505230123 22 140 9.7 30.6 0.00 0.00 0.00 43 1012.9
20260505225123 23 138 8.0 22.5 0.00 0.00 0.00 40 1012.9
20260505224123 23 137 8.0 29.0 0.00 0.00 0.00 40 1012.9
20260505223123 23 135 9.7 37.0 0.00 0.00 0.00 40 1012.9
20260505222123 23 126 9.7 30.6 0.00 0.00 0.00 40 1013.0
20260505221125 23 139 11.3 30.6 0.00 0.00 0.00 40 1013.0
20260505220124 23 130 8.0 29.0 0.00 0.00 0.00 39 1013.0
20260505215123 23 138 6.4 25.7 0.00 0.00 0.00 38 1012.9
20260505214123 23 143 9.7 29.0 0.00 0.00 0.00 35 1013.0
20260505213123 23 134 8.0 22.5 0.00 0.00 0.00 33 1013.0
20260505212123 23 133 6.4 20.9 0.00 0.00 0.00 35 1013.2
20260505211123 23 109 6.4 20.9 0.00 0.00 0.00 35 1013.2
20260505210123 23 125 12.9 37.0 0.00 0.00 0.00 35 1013.4
20260505205125 23 138 9.7 22.5 0.00 0.00 0.00 35 1013.4
20260505204125 23 133 8.0 22.5 0.00 0.00 0.00 34 1013.5
20260505203123 23 129 9.7 25.7 0.00 0.00 0.00 35 1013.5
20260505202123 23 116 9.7 25.7 0.00 0.00 0.00 35 1013.5
20260505201144 23 146 4.8 24.1 0.00 0.00 0.00 34 1013.5
20260505200123 23 131 4.8 20.9 0.00 0.00 0.00 33 1013.5
20260505195123 23 141 9.7 25.7 0.00 0.00 0.00 34 1013.9
20260505194125 23 131 9.7 29.0 0.00 0.00 0.00 34 1013.9
20260505193146 23 156 9.7 27.4 0.00 0.00 0.00 33 1013.9
20260505192124 22 152 9.7 32.2 0.00 0.00 0.00 35 1013.8
20260505191123 22 131 9.7 37.0 0.00 0.00 0.00 35 1013.9
20260505190144 22 151 9.7 25.7 0.00 0.00 0.00 36 1013.9
20260505185123 22 138 9.7 29.0 0.00 0.00 0.00 37 1014.0
20260505184123 21 144 11.3 33.8 0.00 0.00 0.00 38 1014.0
20260505183123 21 157 8.0 29.0 0.00 0.00 0.00 39 1014.0
20260505182124 21 147 8.0 29.0 0.00 0.00 0.00 39 1014.0
20260505181124 21 130 11.3 32.2 0.00 0.00 0.00 39 1014.2
20260505180125 20 130 9.7 35.4 0.00 0.00 0.00 42 1014.3
20260505175123 20 129 9.7 29.0 0.00 0.00 0.00 44 1014.2
20260505174144 19 124 8.0 24.1 0.00 0.00 0.00 47 1014.4
20260505173123 19 121 6.4 22.5 0.00 0.00 0.00 47 1014.4
20260505172144 18 133 8.0 25.7 0.00 0.00 0.00 48 1014.4
20260505171123 18 127 8.0 27.4 0.00 0.00 0.00 48 1014.4
20260505170124 18 134 3.2 17.7 0.00 0.00 0.00 48 1014.5
20260505165124 18 143 1.6 8.0 0.00 0.00 0.00 50 1014.5
20260505164123 19 152 0.0 4.8 0.00 0.00 0.00 47 1014.5
20260505163123 17 135 0.0 0.0 0.00 0.00 0.00 53 1014.5
20260505162122 18 130 0.0 4.8 0.00 0.00 0.00 53 1014.5
20260505161122 16 135 0.0 0.0 0.00 0.00 0.00 61 1014.7
20260505160122 16 135 0.0 0.0 0.00 0.00 0.00 63 1014.8
20260505153125 12 135 0.0 0.0 0.00 0.00 0.00 75 1015.0
20260505152124 12 135 0.0 0.0 0.00 0.00 0.00 75 1015.0
20260505151122 11 158 0.0 0.0 0.00 0.00 0.00 80 1015.0
20260505150123 10 158 0.0 0.0 0.00 0.00 0.00 82 1015.0